FW6583 Weather Reports


Display with metric or nautical units.
time (UTC)temp
F
wind
direction
speed
MPH
gust
MPH
rain 1hr
in
rain 24hr
in
rain mn
in
humidity
%
barometer
mb
20260507085023 46 0 0.0 1.0 0.00 0.49 0.00 81 1016.2
20260507084550 47 0 0.0 1.0 0.00 0.49 0.00 81 1016.2
20260507084027 47 0 0.0 1.0 0.00 0.49 0.00 84 1016.3
20260507083526 47 0 0.0 0.0 0.00 0.49 0.00 83 1016.2
20260507083041 47 0 0.0 0.0 0.00 0.49 0.00 84 1016.4
20260507082523 47 0 0.0 0.0 0.00 0.49 0.00 84 1016.3
20260507082024 47 0 0.0 0.0 0.00 0.49 0.00 84 1016.2
20260507081550 47 0 0.0 1.0 0.00 0.49 0.00 84 1016.2
20260507081026 47 0 0.0 1.0 0.00 0.49 0.00 84 1016.3
20260507080528 47 0 0.0 0.0 0.00 0.49 0.00 86 1016.3
20260507080047 47 0 0.0 0.0 0.00 0.49 0.00 86 1016.3
20260507075526 48 0 0.0 0.0 0.00 0.49 0.00 86 1016.2
20260507075028 48 0 0.0 0.0 0.00 0.49 0.00 86 1016.1
20260507074546 48 0 0.0 0.0 0.00 0.49 0.00 86 1016.2
20260507074025 48 0 0.0 0.0 0.00 0.49 0.00 85 1016.1
20260507073524 48 0 0.0 0.0 0.00 0.49 0.00 85 1016.1
20260507073040 48 0 0.0 1.0 0.00 0.49 0.00 86 1016.2
20260507072528 48 0 0.0 1.0 0.00 0.49 0.00 86 1016.2
20260507072022 48 0 0.0 1.0 0.00 0.49 0.00 85 1016.2
20260507071539 48 0 0.0 0.0 0.00 0.49 0.00 86 1016.1
20260507071031 48 0 0.0 0.0 0.00 0.49 0.00 86 1016.1
20260507070526 48 0 0.0 0.0 0.00 0.49 0.00 85 1016.2
20260507070049 48 0 0.0 0.0 0.00 0.49 0.00 85 1016.1
20260507065523 48 0 0.0 0.0 0.00 0.49 0.00 85 1016.2
20260507065024 48 0 0.0 0.0 0.00 0.49 0.00 87 1016.2
20260507064618 48 0 0.0 0.0 0.00 0.49 0.00 88 1016.0
20260507064024 48 0 0.0 0.0 0.00 0.49 0.00 88 1016.1
20260507063525 48 0 0.0 0.0 0.00 0.49 0.00 88 1016.1
20260507063042 49 0 0.0 0.0 0.00 0.49 0.00 88 1016.1
20260507062525 49 0 0.0 0.0 0.00 0.49 0.00 87 1016.0
20260507062024 49 0 0.0 0.0 0.00 0.49 0.00 86 1016.1
20260507061542 49 0 0.0 0.0 0.00 0.49 0.00 86 1016.1
20260507061024 49 0 0.0 0.0 0.00 0.49 0.00 87 1016.0
20260507060526 49 0 0.0 0.0 0.00 0.49 0.00 86 1016.1
20260507055523 49 0 0.0 0.0 0.00 0.49 0.00 86 1016.1
20260507055025 49 0 0.0 0.0 0.00 0.49 0.00 86 1016.1
20260507054546 49 0 0.0 0.0 0.00 0.49 0.00 86 1016.3
20260507054026 49 0 0.0 1.0 0.00 0.49 0.00 86 1016.3
20260507053526 49 0 0.0 1.0 0.00 0.49 0.00 85 1016.4
20260507053043 49 88 0.0 1.0 0.00 0.49 0.00 87 1016.5
20260507052524 49 88 0.0 1.0 0.00 0.49 0.00 89 1016.5
20260507052026 49 0 0.0 1.0 0.00 0.49 0.00 92 1016.5
20260507051551 49 0 0.0 4.0 0.00 0.49 0.00 93 1016.7
20260507051026 49 0 0.0 4.0 0.00 0.49 0.00 95 1016.7
20260507050527 50 8 1.0 4.0 0.00 0.49 0.00 96 1016.6
20260507050048 50 290 0.0 2.0 0.00 0.49 0.00 97 1016.6
20260507045525 50 0 0.0 0.0 0.00 0.49 0.00 97 1016.6
20260507045027 50 0 0.0 0.0 0.00 0.49 0.00 97 1016.4
20260507044542 50 0 0.0 0.0 0.00 0.49 0.00 97 1016.5
20260507044023 51 0 0.0 0.0 0.00 0.49 0.00 97 1016.6
20260507043523 50 0 0.0 0.0 0.00 0.49 0.00 97 1016.6
20260507043041 50 0 0.0 0.0 0.00 0.49 0.00 97 1016.5
20260507042528 50 0 0.0 0.0 0.00 0.49 0.00 96 1016.5
20260507042026 50 0 0.0 0.0 0.00 0.49 0.00 96 1016.5
20260507041540 50 0 0.0 0.0 0.00 0.49 0.00 96 1016.5
20260507041032 50 0 0.0 0.0 0.00 0.49 0.00 96 1016.4
20260507040525 50 0 0.0 0.0 0.00 0.49 0.00 96 1016.3
20260507040047 50 0 0.0 0.0 0.00 0.49 0.00 96 1016.4
20260507035525 50 0 0.0 0.0 0.00 0.49 0.49 96 1016.3
20260507035029 51 0 0.0 0.0 0.00 0.49 0.49 96 1016.2
20260507034542 50 0 0.0 0.0 0.00 0.49 0.49 96 1016.1
20260507034024 50 0 0.0 0.0 0.00 0.49 0.49 96 1016.2
20260507033528 50 0 0.0 0.0 0.00 0.49 0.49 96 1016.4
20260507033045 50 0 0.0 0.0 0.00 0.49 0.49 96 1016.3
20260507032524 50 0 0.0 0.0 0.00 0.49 0.49 96 1016.2
20260507032024 50 0 0.0 0.0 0.00 0.49 0.49 96 1016.4
20260507031544 51 0 0.0 0.0 0.00 0.49 0.49 96 1016.5
20260507031023 51 0 0.0 0.0 0.00 0.49 0.49 96 1016.7
20260507030526 50 0 0.0 0.0 0.00 0.49 0.49 96 1016.8
20260507030040 51 0 0.0 0.0 0.00 0.49 0.49 96 1016.6
20260507025530 51 0 0.0 0.0 0.00 0.49 0.49 96 1016.6
20260507025027 51 0 0.0 0.0 0.00 0.49 0.49 95 1016.4
20260507024546 50 0 0.0 0.0 0.00 0.49 0.49 95 1016.1
20260507024024 51 0 0.0 0.0 0.00 0.49 0.49 95 1016.1
20260507023524 51 0 0.0 0.0 0.00 0.49 0.49 95 1016.3
20260507023042 51 0 0.0 0.0 0.00 0.49 0.49 95 1015.9
20260507022524 51 0 0.0 0.0 0.00 0.49 0.49 95 1016.0
20260507022024 51 0 0.0 0.0 0.00 0.49 0.49 95 1016.0
20260507021545 51 0 0.0 0.0 0.00 0.49 0.49 95 1016.1
20260507021024 51 0 0.0 0.0 0.00 0.49 0.49 95 1016.0
20260507020524 51 0 0.0 0.0 0.00 0.49 0.49 95 1015.7
20260507020100 51 0 0.0 0.0 0.00 0.49 0.49 95 1015.8
20260507015526 51 0 0.0 0.0 0.00 0.49 0.49 95 1015.9
20260507015027 51 0 0.0 0.0 0.00 0.49 0.49 95 1016.0
20260507014546 51 0 0.0 0.0 0.00 0.49 0.49 95 1015.9
20260507014023 51 0 0.0 0.0 0.00 0.49 0.49 95 1015.7
20260507013524 51 0 0.0 0.0 0.00 0.49 0.49 94 1015.6
20260507013041 51 0 0.0 0.0 0.00 0.49 0.49 94 1015.7
20260507012524 51 0 0.0 0.0 0.00 0.49 0.49 94 1015.8
20260507012024 51 0 0.0 0.0 0.00 0.49 0.49 94 1015.8
20260507011541 51 0 0.0 0.0 0.00 0.49 0.49 94 1016.1
20260507011023 51 0 0.0 0.0 0.00 0.49 0.49 94 1015.9
20260507010524 51 0 0.0 0.0 0.00 0.49 0.49 94 1015.5
20260507010058 51 0 0.0 0.0 0.00 0.49 0.49 94 1015.4
20260507005523 51 0 0.0 0.0 0.00 0.49 0.49 94 1015.2
20260507005024 51 0 0.0 0.0 0.00 0.49 0.49 94 1015.2
20260507004545 51 0 0.0 0.0 0.00 0.49 0.49 94 1015.1
20260507004024 51 0 0.0 0.0 0.00 0.49 0.49 94 1015.2
20260507003524 51 0 0.0 0.0 0.00 0.49 0.49 94 1015.3
20260507003046 51 0 0.0 0.0 0.00 0.49 0.49 94 1015.5
20260507002523 51 0 0.0 0.0 0.00 0.49 0.49 94 1015.4
20260507002028 51 0 0.0 0.0 0.00 0.49 0.49 93 1015.4
20260507001554 51 0 0.0 0.0 0.00 0.49 0.49 93 1015.4
20260507001024 51 0 0.0 0.0 0.00 0.49 0.49 93 1015.2
20260507000524 51 0 0.0 0.0 0.00 0.49 0.49 92 1015.2
20260507000039 52 0 0.0 1.0 0.00 0.49 0.49 92 1015.5
20260506235524 52 0 0.0 1.0 0.00 0.49 0.49 92 1016.0
20260506235023 52 153 0.0 1.0 0.00 0.49 0.49 91 1015.8
20260506234547 52 0 0.0 1.0 0.00 0.49 0.49 92 1015.8
20260506234024 52 0 0.0 1.0 0.00 0.49 0.49 91 1015.6
20260506233524 52 0 0.0 1.0 0.00 0.49 0.49 92 1015.4
20260506233045 52 0 0.0 0.0 0.00 0.49 0.49 92 1015.6
20260506232526 52 0 0.0 0.0 0.00 0.49 0.49 91 1015.5
20260506232023 52 0 0.0 1.0 0.00 0.49 0.49 90 1015.5
20260506231604 52 0 0.0 1.0 0.00 0.49 0.49 90 1015.5
20260506231024 52 0 0.0 1.0 0.00 0.49 0.49 91 1015.4
20260506230523 52 0 0.0 0.0 0.00 0.49 0.49 92 1015.4
20260506230058 52 0 0.0 1.0 0.00 0.49 0.49 91 1015.6
20260506225526 52 0 0.0 1.0 0.00 0.49 0.49 92 1015.7
20260506225024 52 285 0.0 1.0 0.00 0.49 0.49 92 1015.4
20260506224540 52 0 0.0 1.0 0.00 0.49 0.49 93 1015.2
20260506224026 52 0 0.0 0.0 0.00 0.49 0.49 94 1015.2
20260506223523 53 0 0.0 0.0 0.00 0.49 0.49 94 1015.3
20260506223045 53 0 0.0 0.0 0.00 0.49 0.49 94 1015.2
20260506222524 53 0 0.0 0.0 0.00 0.49 0.49 94 1015.1
20260506222024 53 0 0.0 0.0 0.00 0.49 0.49 94 1015.1
20260506221605 53 0 0.0 0.0 0.00 0.49 0.49 94 1015.0
20260506221023 53 0 0.0 0.0 0.00 0.49 0.49 93 1015.1
20260506220523 53 0 0.0 0.0 0.00 0.49 0.49 93 1015.0
20260506220058 53 0 0.0 0.0 0.00 0.49 0.49 93 1015.0
20260506215526 53 0 0.0 1.0 0.00 0.49 0.49 93 1014.9
20260506215024 53 0 0.0 1.0 0.00 0.49 0.49 93 1014.9
20260506214548 53 0 0.0 0.0 0.00 0.49 0.49 92 1014.7
20260506214024 53 46 0.0 1.0 0.00 0.49 0.49 92 1014.6
20260506213524 53 0 0.0 1.0 0.00 0.49 0.49 92 1014.7
20260506213046 53 0 0.0 1.0 0.00 0.49 0.49 91 1014.7
20260506212524 53 0 0.0 0.0 0.00 0.49 0.49 91 1014.6
20260506212025 53 0 0.0 0.0 0.00 0.49 0.49 92 1014.6
20260506211540 53 0 0.0 0.0 0.00 0.49 0.49 92 1014.5
20260506211024 53 0 0.0 0.0 0.00 0.49 0.49 92 1014.4
20260506210523 53 0 0.0 0.0 0.00 0.49 0.49 92 1014.3
20260506210053 53 0 0.0 0.0 0.00 0.49 0.49 91 1014.2
20260506205523 53 0 0.0 1.0 0.00 0.49 0.49 91 1014.2
20260506205023 53 0 0.0 1.0 0.00 0.49 0.49 91 1014.1
20260506204541 53 323 0.0 1.0 0.00 0.49 0.49 91 1014.1
20260506204023 53 319 0.0 1.0 0.00 0.49 0.49 92 1014.0
20260506203524 53 352 0.0 1.0 0.00 0.49 0.49 92 1014.2
20260506203040 53 0 0.0 0.0 0.00 0.49 0.49 93 1014.1
20260506202523 53 0 0.0 2.0 0.00 0.49 0.49 93 1013.9
20260506202023 53 0 0.0 2.0 0.00 0.49 0.49 92 1014.0
20260506201545 53 317 0.0 1.0 0.00 0.49 0.49 92 1014.2
20260506201024 53 0 1.0 1.0 0.00 0.49 0.49 93 1014.1
20260506200522 53 0 0.0 2.0 0.00 0.49 0.49 93 1014.1
20260506200039 52 304 1.0 2.0 0.00 0.49 0.49 93 1014.0
20260506195524 52 0 0.0 2.0 0.00 0.49 0.49 93 1013.8
20260506195024 53 0 0.0 2.0 0.00 0.49 0.49 94 1013.8
20260506194544 52 0 0.0 2.0 0.00 0.49 0.49 94 1013.9
20260506194027 52 0 0.0 2.0 0.00 0.49 0.49 94 1013.9
20260506193523 52 0 0.0 1.0 0.00 0.49 0.49 95 1013.7
20260506193041 52 302 0.0 1.0 0.00 0.49 0.49 95 1013.8
20260506192524 52 0 0.0 2.0 0.00 0.49 0.49 95 1013.8
20260506192028 52 0 0.0 2.0 0.00 0.49 0.49 95 1013.9
20260506191543 52 0 1.0 2.0 0.00 0.49 0.49 95 1013.9
20260506191024 52 302 0.0 5.0 0.00 0.49 0.49 95 1013.9
20260506190524 52 321 1.0 5.0 0.00 0.49 0.49 95 1013.9
20260506190043 52 314 1.0 5.0 0.00 0.49 0.49 95 1014.0
20260506185524 52 319 0.0 3.0 0.00 0.49 0.49 96 1013.7
20260506185024 52 300 1.0 4.0 0.00 0.49 0.49 95 1013.7
20260506184542 53 302 2.0 6.0 0.00 0.49 0.49 95 1013.7
20260506184025 53 292 1.0 6.0 0.00 0.49 0.49 95 1013.5
20260506183527 53 35 2.0 5.0 0.01 0.49 0.49 95 1013.6
20260506183045 53 59 1.0 3.0 0.01 0.49 0.49 96 1013.6
20260506182530 53 300 1.0 4.0 0.01 0.49 0.49 95 1013.3
20260506182030 53 302 1.0 4.0 0.01 0.49 0.49 96 1013.2
20260506181546 54 305 0.0 4.0 0.01 0.49 0.49 96 1013.3
20260506181027 54 274 0.0 2.0 0.01 0.49 0.49 96 1013.3
20260506180527 54 0 1.0 2.0 0.01 0.49 0.49 96 1013.4
20260506180047 54 331 0.0 0.0 0.01 0.49 0.49 96 1013.5
20260506175526 54 0 0.0 0.0 0.01 0.49 0.49 96 1013.4
20260506175023 54 0 0.0 0.0 0.01 0.49 0.49 97 1013.5
20260506174544 54 0 0.0 0.0 0.01 0.49 0.49 96 1013.4
20260506174026 54 0 0.0 0.0 0.01 0.49 0.49 96 1013.5
20260506173527 54 0 0.0 1.0 0.00 0.48 0.48 96 1013.4
20260506173047 54 0 0.0 1.0 0.00 0.48 0.48 96 1013.3
20260506172527 54 345 0.0 1.0 0.00 0.48 0.48 96 1013.3
20260506172030 54 358 0.0 1.0 0.00 0.48 0.48 96 1013.3
20260506171556 54 0 0.0 1.0 0.00 0.48 0.48 96 1013.0
20260506171027 54 344 0.0 2.0 0.00 0.48 0.48 96 1013.2
20260506170530 54 322 0.0 2.0 0.01 0.48 0.48 96 1013.0
20260506170050 54 307 1.0 2.0 0.02 0.48 0.48 96 1013.1
20260506165524 54 311 0.0 2.0 0.03 0.48 0.48 96 1013.2
20260506165028 54 293 0.0 4.0 0.03 0.48 0.48 96 1013.1
20260506164546 54 18 1.0 4.0 0.03 0.48 0.48 96 1013.1
20260506164027 54 357 2.0 4.0 0.03 0.48 0.48 96 1012.9
20260506163527 55 311 1.0 6.0 0.03 0.48 0.48 96 1012.8
20260506163045 55 305 1.0 6.0 0.03 0.48 0.48 96 1012.7
20260506162530 55 295 1.0 3.0 0.04 0.48 0.48 96 1012.7
20260506162026 55 317 0.0 4.0 0.04 0.48 0.48 96 1012.7
20260506161544 56 313 1.0 4.0 0.04 0.48 0.48 96 1012.5
20260506161023 56 300 2.0 5.0 0.05 0.48 0.48 96 1012.5
20260506160528 57 1 2.0 5.0 0.04 0.47 0.47 96 1012.3
20260506160057 58 307 0.0 3.0 0.04 0.46 0.46 98 1012.2
20260506155524 58 0 0.0 0.0 0.03 0.45 0.45 98 1011.9
20260506155027 58 0 0.0 0.0 0.03 0.45 0.45 98 1011.9
20260506154542 58 0 0.0 0.0 0.03 0.45 0.45 98 1011.8
20260506154029 58 0 0.0 2.0 0.03 0.45 0.45 98 1011.8
20260506153527 58 0 0.0 2.0 0.03 0.45 0.45 98 1011.9
20260506153043 58 278 1.0 2.0 0.03 0.45 0.45 98 1011.9
20260506152526 58 0 1.0 4.0 0.02 0.44 0.44 98 1011.8
20260506152027 58 278 1.0 4.0 0.02 0.44 0.44 98 1011.7
20260506151545 58 286 0.0 3.0 0.02 0.44 0.44 98 1011.6
20260506151026 58 18 0.0 3.0 0.01 0.43 0.43 97 1011.5
20260506150526 58 37 1.0 3.0 0.01 0.43 0.43 97 1011.5
20260506150052 58 21 1.0 3.0 0.00 0.42 0.42 98 1011.5
20260506145527 58 309 0.0 3.0 0.00 0.42 0.42 98 1011.4
20260506145023 58 247 0.0 3.0 0.00 0.42 0.42 98 1011.4
20260506144557 58 20 0.0 3.0 0.00 0.42 0.42 98 1011.2
20260506144028 58 0 0.0 4.0 0.00 0.42 0.42 98 1011.2
20260506143525 57 307 1.0 4.0 0.00 0.42 0.42 98 1011.0
20260506143046 57 340 0.0 3.0 0.00 0.42 0.42 98 1010.8
20260506142526 57 314 0.0 3.0 0.00 0.42 0.42 98 1010.8
20260506142026 57 5 1.0 3.0 0.00 0.42 0.42 98 1010.7
20260506141543 57 330 0.0 4.0 0.00 0.42 0.42 98 1010.6
20260506141027 57 334 2.0 4.0 0.00 0.42 0.42 98 1010.6
20260506140527 57 44 0.0 2.0 0.00 0.42 0.42 98 1010.4
20260506140044 57 25 0.0 2.0 0.00 0.42 0.42 98 1010.4
20260506135530 57 0 0.0 3.0 0.00 0.42 0.42 98 1010.4
20260506135026 57 32 1.0 3.0 0.00 0.42 0.42 98 1010.4
20260506134545 57 311 0.0 4.0 0.00 0.42 0.42 98 1010.4
20260506134029 57 37 1.0 4.0 0.00 0.42 0.42 98 1010.7
20260506133523 56 326 0.0 3.0 0.00 0.42 0.42 98 1010.7
20260506133040 56 11 1.0 3.0 0.00 0.42 0.42 97 1010.7
20260506132530 56 335 0.0 3.0 0.01 0.42 0.42 97 1010.6
20260506132023 56 325 0.0 2.0 0.01 0.42 0.42 97 1010.6
20260506131548 56 0 0.0 1.0 0.01 0.42 0.42 97 1010.6
20260506131029 56 0 0.0 1.0 0.01 0.42 0.42 97 1010.3
20260506130523 56 24 0.0 2.0 0.02 0.42 0.42 97 1010.4
20260506130038 56 23 0.0 2.0 0.02 0.42 0.42 97 1010.3
20260506125526 56 23 0.0 2.0 0.02 0.42 0.42 97 1010.5
20260506125026 56 0 0.0 2.0 0.03 0.42 0.42 97 1010.5
20260506124546 56 31 0.0 2.0 0.03 0.42 0.42 97 1010.5
20260506124030 56 30 0.0 2.0 0.03 0.42 0.42 97 1010.6
20260506123527 56 0 0.0 2.0 0.03 0.42 0.42 97 1010.6
20260506123050 56 57 0.0 2.0 0.03 0.42 0.42 97 1010.6
20260506122527 56 0 0.0 1.0 0.02 0.41 0.41 97 1010.6
20260506122030 56 0 0.0 1.0 0.02 0.41 0.41 97 1010.5
20260506121542 56 0 0.0 3.0 0.03 0.41 0.41 97 1010.6
20260506121024 55 25 0.0 3.0 0.03 0.41 0.41 97 1010.6
20260506120527 55 25 0.0 1.0 0.02 0.40 0.40 97 1010.6
20260506120039 55 0 0.0 1.0 0.02 0.40 0.40 97 1010.6
20260506115523 55 15 0.0 1.0 0.01 0.39 0.39 97 1010.7
20260506115023 55 0 0.0 2.0 0.02 0.39 0.39 97 1010.5
20260506114543 55 0 0.0 2.0 0.02 0.39 0.39 97 1010.5
20260506114024 55 0 0.0 3.0 0.03 0.39 0.39 97 1010.4
20260506113524 55 6 0.0 4.0 0.03 0.39 0.39 97 1010.4
20260506113046 55 334 1.0 4.0 0.04 0.39 0.39 97 1010.4
20260506112523 55 34 2.0 4.0 0.04 0.39 0.39 97 1010.3
20260506112023 55 94 0.0 2.0 0.05 0.39 0.39 97 1010.4
20260506111547 55 27 1.0 2.0 0.05 0.38 0.38 97 1010.5
20260506111023 55 2 0.0 1.0 0.05 0.38 0.38 96 1010.3
20260506110526 55 0 0.0 1.0 0.06 0.38 0.38 96 1010.4
20260506110044 55 0 0.0 1.0 0.07 0.38 0.38 96 1010.4
20260506105527 55 0 0.0 1.0 0.09 0.38 0.38 96 1010.3
20260506105025 55 0 0.0 1.0 0.10 0.37 0.37 96 1010.4
20260506104544 55 0 0.0 1.0 0.13 0.37 0.37 96 1010.6
20260506104023 55 0 0.0 0.0 0.14 0.36 0.36 96 1010.6
20260506103523 55 0 0.0 0.0 0.16 0.36 0.36 96 1010.5
20260506103039 55 0 0.0 0.0 0.17 0.35 0.35 96 1010.5
20260506102523 55 0 0.0 0.0 0.19 0.35 0.35 96 1010.6
20260506102024 55 0 0.0 0.0 0.21 0.34 0.34 96 1010.5
20260506101543 55 0 0.0 0.0 0.22 0.33 0.33 96 1010.6
20260506101024 55 0 0.0 1.0 0.24 0.33 0.33 95 1010.5
20260506100523 55 0 0.0 1.0 0.24 0.32 0.32 95 1010.4
20260506100055 55 40 0.0 1.0 0.25 0.31 0.31 95 1010.4
20260506095524 55 0 0.0 2.0 0.24 0.29 0.29 95 1010.4
20260506095024 55 0 0.0 2.0 0.23 0.27 0.27 94 1010.5
20260506094543 55 56 0.0 0.0 0.20 0.24 0.24 94 1010.7
20260506094023 56 0 0.0 1.0 0.17 0.21 0.21 94 1010.7
20260506093525 56 0 0.0 1.0 0.16 0.19 0.19 94 1010.7
20260506093043 56 0 0.0 2.0 0.16 0.18 0.18 93 1010.7
20260506092526 56 0 0.0 2.0 0.14 0.16 0.16 93 1010.8
20260506092023 56 0 0.0 2.0 0.12 0.13 0.13 93 1010.9
20260506091540 56 61 0.0 2.0 0.09 0.10 0.10 92 1011.1
20260506091057 56 25 0.0 2.0 0.09 0.09 0.09 92 1011.0
20260506090523 56 222 0.0 2.0 0.07 0.07 0.07 92 1010.9
20260506090046 56 232 0.0 1.0 0.06 0.06 0.06 91 1010.9
20260506085526 56 257 0.0 1.0 0.05 0.05 0.05 91 1010.9